Weather in Tonkino

Russia / Nizhny Novgorod Oblast'     57°22′21″N   46°27′26″E
temp.,
°C
wind,
m/s
gust,
m/s
humid.,
%
clouds,
%
prec.,
mm/h
press.,
hPa
HPBL,
m
6 may, thu
thu600:00+1w25966 0.0 1010110
03:00+2wsw269399 0.0 1011145
06:00+4ssw1289100 0.0 1012102
09:00+9s246810 0.0 1013633
12:00+15ssw4657100 0.0 10121476
15:00+18ssw5951100 0.3 10112062
18:00+15ssw51160100 0.0 1010701
21:00+12s51478100 0.0 1011606
7 may, fri
fri700:00+11ssw5147890 0.0 1010650
03:00+10s51383100 0.0 1010457
06:00+10s5128092 0.0 1011578
09:00+14ssw6964100 0.0 10101020
12:00+15sw6964100 0.3 10101490
15:00+8wnw5784100 0.8 1012610
18:00+8ssw2386100 3.1 1014284
21:00+5ssw37978 3.1 1016166
8 may, sat
sat800:00+4ssw37960 0.0 1017133
03:00+4s239411 0.0 101856
06:00+6sse35895 0.0 1018145
09:00+12sse466422 0.0 1018745
12:00+15se674744 0.0 10161494
15:00+17sse6947100 0.0 10131995
18:00+15sse61168100 0.0 1011790
21:00+12se41384100 0.0 1010390
9 may, sun
sun900:00+11sse51585100 0.0 1009499
03:00+11sse61581100 0.3 1008746
06:00+11sse71590100 1.6 1008991
09:00+11ssw51093100 2.0 1009876
12:00+9sw4989100 0.4 1013777
15:00+10wsw3677100 0.8 1015878
18:00+9nw3678100 0.3 1017629
21:00+7wnw2585100 0.3 1019122
10 may, mon
mon1000:00+6nw488698 0.0 1022407
03:00+4nw499198 0.0 1025376
06:00+5nnw49820 0.0 1028458
09:00+10n46555 0.0 10291007
12:00+13nnw34455 0.0 10301465
15:00+14nnw34406 0.0 10291644
18:00+13nnw22544 0.0 103055
21:00+8nnw11615 0.0 103110